Wind_Speed
38 38 37 37 37 37 37 38 38 38 39 40 41 43 44 45 46 47 48 49 49 50 51 52 52 51 51 51 51 52 52 54 55 55 54 54 54 52
39 39 38 38 38 38 38 39 39 39 40 40 42 43 45 46 47 48 48 49 49 50 51 51 51 50 50 51 52 52 53 54 54 54 54 54 54 51
40 39 38 38 39 39 39 39 39 40 41 41 42 44 46 47 47 47 48 48 49 50 50 50 50 50 50 52 52 53 53 53 54 54 54 54 53 50
41 40 39 39 39 39 39 40 40 41 42 42 44 45 46 47 47 47 48 48 49 50 50 49 48 49 50 52 52 52 53 54 53 54 54 54 52 49
41 41 40 40 40 39 40 40 41 41 42 43 44 45 46 46 47 47 48 48 49 50 49 48 48 49 51 51 52 52 53 53 53 54 54 53 51 49
42 41 41 41 40 40 41 41 41 42 43 44 44 45 45 45 46 47 47 48 48 49 48 47 48 49 50 51 52 52 52 52 53 53 53 52 51 50
42 42 42 41 41 41 41 41 41 42 43 44 44 45 45 45 45 46 47 47 47 48 48 48 48 49 49 50 51 51 51 52 52 53 53 52 51 50
43 42 42 42 41 41 41 41 42 42 43 43 44 44 44 44 44 45 46 46 46 47 47 47 48 48 49 49 50 50 51 52 53 54 53 52 51 50
44 43 43 43 42 42 42 42 42 43 43 43 43 43 43 43 44 45 45 46 46 46 46 46 47 48 48 49 49 50 51 52 53 53 53 52 51 49
44 43 43 43 42 41 42 43 43 43 43 43 43 42 42 42 43 44 44 45 46 45 45 45 46 47 48 49 49 50 51 52 53 53 52 51 49 48
44 43 43 42 42 42 43 43 43 43 42 42 41 41 41 41 42 42 43 44 44 45 44 45 45 46 47 48 49 50 51 52 52 52 51 50 49 48
45 44 43 42 42 42 43 43 42 42 42 41 41 41 41 41 41 41 42 43 44 44 44 44 45 46 47 48 49 50 51 51 52 52 51 50 49 47
44 44 43 42 42 42 43 43 42 42 42 41 41 41 40 40 40 41 42 43 44 43 43 44 45 46 47 47 48 49 50 51 51 51 50 49 48 46
44 43 43 43 43 42 42 42 42 42 41 40 40 39 39 39 40 40 42 43 43 43 43 44 45 45 46 47 47 48 50 51 51 50 49 48 47 45
43 43 42 42 42 41 41 41 40 40 40 40 39 38 38 39 39 40 42 43 43 43 43 44 45 45 45 45 46 47 49 50 50 50 48 47 45 44
44 43 42 41 40 40 39 39 39 39 39 39 38 38 39 39 39 40 41 43 43 43 43 43 43 44 44 45 46 48 49 49 49 49 48 46 45 43
44 43 42 40 40 40 40 39 39 39 39 38 38 37 37 38 39 40 41 42 42 42 42 42 42 43 44 45 46 47 48 49 49 48 47 45 44 43
42 41 40 40 39 39 38 38 38 38 38 38 37 36 36 37 38 39 40 40 41 41 41 41 42 43 44 45 46 47 47 48 48 49 47 45 43 42
42 41 40 38 38 38 38 37 37 37 36 35 34 33 34 35 37 38 39 40 40 40 40 40 41 43 44 46 46 47 47 48 48 48 47 44 42 41
41 40 39 38 37 37 36 35 34 34 33 33 32 32 33 34 36 36 37 39 39 40 40 41 42 43 44 45 46 47 48 48 48 47 46 44 42 39
39 38 37 37 36 35 34 34 33 33 33 33 33 33 33 34 35 36 37 38 38 39 40 41 42 43 44 46 47 47 48 49 47 46 44 42 39 37
37 36 36 35 35 35 34 34 34 34 33 33 33 33 33 34 34 35 36 37 38 38 40 41 42 43 44 46 46 47 48 48 48 46 44 41 37 33
35 34 35 35 35 34 33 33 33 33 32 32 32 33 33 34 34 35 35 36 37 39 40 41 42 43 45 45 46 47 47 47 46 45 43 39 35 31
Wind_Direction
262 266 269 273 277 280 284 287 290 293 297 300 303 305 307 309 311 313 313 314 315 315 316 317 317 317 318 318 319 319 319 320 320 320 319 319 318 317
262 265 269 273 277 280 284 287 290 293 296 299 302 305 307 309 311 312 313 314 314 315 316 317 318 318 319 319 319 319 320 320 321 321 321 320 319 318
261 265 269 273 277 280 283 286 289 292 295 298 302 305 307 308 310 311 312 313 314 316 317 317 318 319 319 319 319 320 320 321 322 322 322 321 320 319
261 265 269 272 276 280 283 286 288 291 294 298 301 304 306 308 309 310 311 313 315 316 317 317 317 318 319 320 320 320 321 322 322 323 323 322 321 319
260 264 268 272 276 279 282 285 287 291 294 298 301 303 306 308 308 309 311 313 314 316 317 317 317 319 319 320 320 321 322 323 323 324 324 323 322 320
260 263 267 271 275 279 282 284 286 290 293 297 300 303 305 307 308 309 311 313 314 316 317 316 318 319 320 320 321 322 323 324 324 325 325 324 323 322
259 262 267 270 274 277 280 283 286 289 293 296 299 302 304 306 307 308 311 313 315 316 316 317 318 319 320 320 321 323 324 324 325 326 326 325 323 323
259 262 265 269 273 275 278 282 286 289 292 296 299 301 303 305 306 308 310 312 314 315 316 317 318 319 320 321 322 323 324 325 326 326 326 325 324 323
259 262 265 268 271 273 277 282 286 289 293 296 298 300 302 304 306 308 310 312 315 315 316 317 318 320 320 322 323 324 325 326 327 327 327 326 325 325
259 262 264 267 270 273 277 281 285 289 293 295 297 299 301 303 306 308 310 312 315 316 317 318 319 320 321 322 323 324 326 327 327 328 328 328 328 328
258 260 263 266 269 272 276 280 284 288 291 294 296 298 299 302 305 307 310 312 315 316 317 318 319 320 321 322 324 325 326 327 328 329 328 328 328 328
258 260 263 265 269 272 276 279 283 286 289 292 294 296 298 301 304 307 309 312 315 316 317 317 319 320 322 323 324 325 326 328 329 329 329 329 329 329
258 260 263 266 269 272 275 278 282 285 287 290 293 295 298 301 304 306 309 313 315 316 317 317 319 320 322 324 324 325 327 329 330 330 329 329 330 330
259 261 264 266 269 271 274 278 281 284 286 288 292 295 298 300 302 305 309 313 314 315 317 318 319 320 322 324 325 326 328 330 330 330 330 330 330 331
260 261 263 265 268 270 274 277 280 282 285 288 292 295 296 299 301 305 309 312 313 314 316 317 318 320 322 324 326 327 329 330 330 331 330 331 332 332
258 259 261 265 267 270 272 275 278 281 285 288 291 293 295 297 301 305 308 311 313 314 316 317 318 320 322 324 326 328 329 330 331 331 331 331 332 332
258 259 261 263 264 267 270 273 277 280 284 287 289 292 295 296 300 303 306 310 312 314 315 317 318 320 323 325 326 328 329 330 331 332 332 331 331 331
254 256 258 260 262 266 269 272 276 279 283 287 289 292 294 296 300 303 306 310 311 313 315 316 318 320 323 325 327 328 329 330 331 331 331 331 330 331
251 254 256 259 263 266 269 273 276 279 283 287 289 292 295 298 302 304 307 309 311 313 314 315 317 320 322 324 326 328 329 330 330 330 330 330 330 330
251 253 255 258 262 265 268 272 276 279 282 285 289 292 296 299 302 305 307 310 311 313 314 315 317 319 321 324 325 326 327 329 330 330 330 330 330 330
250 251 254 257 261 264 267 271 274 278 282 285 289 293 296 298 302 305 308 310 311 312 314 315 317 319 321 323 325 326 326 328 329 329 330 329 329 329
247 250 253 256 260 263 266 270 273 277 282 285 288 292 296 299 301 303 306 309 311 312 314 315 317 319 320 322 324 325 326 327 328 329 329 329 329 329
247 249 253 255 258 261 264 268 273 277 280 284 287 291 295 298 300 302 306 309 311 312 314 316 317 319 321 322 323 325 326 327 328 328 329 329 329 330
Height
5748 5749 5749 5749 5749 5748 5747 5746 5744 5742 5739 5735 5731 5726 5722 5717 5712 5706 5700 5693 5687 5680 5673 5665 5657 5649 5642 5634 5627 5619 5610 5602 5593 5584 5575 5566 5557 5549
5739 5740 5741 5741 5740 5740 5738 5737 5735 5733 5730 5727 5723 5718 5713 5708 5703 5697 5691 5684 5678 5671 5663 5656 5648 5640 5633 5625 5617 5609 5600 5592 5582 5573 5564 5555 5546 5537
5730 5731 5732 5732 5731 5731 5729 5728 5726 5724 5721 5718 5714 5709 5704 5699 5693 5688 5682 5675 5669 5661 5654 5646 5639 5631 5624 5616 5608 5599 5591 5581 5572 5563 5553 5544 5535 5527
5720 5722 5722 5722 5722 5722 5720 5719 5717 5714 5712 5709 5705 5700 5695 5690 5684 5679 5673 5666 5659 5652 5645 5637 5630 5622 5615 5607 5598 5590 5581 5571 5562 5553 5544 5535 5526 5517
5710 5712 5713 5713 5713 5712 5711 5709 5707 5705 5702 5699 5695 5691 5686 5681 5675 5669 5663 5657 5650 5643 5636 5628 5621 5614 5606 5598 5589 5580 5571 5563 5554 5544 5534 5525 5516 5507
5700 5701 5702 5703 5703 5702 5701 5700 5698 5695 5693 5689 5686 5682 5677 5672 5666 5661 5654 5648 5641 5634 5626 5620 5613 5605 5597 5589 5581 5572 5562 5553 5544 5535 5525 5515 5506 5498
5689 5691 5692 5693 5693 5692 5691 5690 5688 5686 5683 5680 5676 5672 5668 5663 5658 5652 5646 5639 5632 5625 5617 5611 5604 5597 5589 5580 5571 5562 5554 5544 5535 5526 5516 5506 5497 5488
5679 5680 5681 5682 5682 5682 5681 5680 5678 5676 5673 5670 5666 5662 5658 5653 5648 5642 5636 5631 5625 5618 5609 5602 5595 5588 5580 5572 5563 5554 5545 5536 5526 5517 5507 5497 5488 5479
5668 5670 5671 5672 5672 5671 5671 5670 5668 5666 5663 5660 5657 5653 5648 5644 5639 5633 5627 5621 5615 5608 5601 5594 5586 5579 5571 5563 5554 5545 5536 5527 5518 5508 5498 5489 5479 5470
5657 5659 5660 5661 5661 5661 5660 5659 5658 5656 5653 5650 5647 5643 5638 5634 5629 5624 5618 5612 5605 5599 5592 5586 5578 5570 5562 5554 5545 5537 5528 5518 5509 5499 5490 5480 5471 5462
5646 5648 5649 5650 5651 5650 5650 5649 5647 5645 5642 5640 5637 5633 5628 5624 5619 5615 5609 5603 5597 5591 5584 5578 5571 5563 5555 5546 5537 5528 5519 5510 5500 5491 5481 5472 5463 5454
5634 5637 5638 5639 5639 5639 5639 5638 5637 5635 5632 5630 5626 5623 5619 5615 5610 5606 5600 5595 5589 5583 5576 5570 5563 5555 5548 5539 5530 5521 5511 5502 5493 5483 5473 5464 5455 5447
5623 5625 5627 5627 5628 5628 5628 5627 5626 5624 5622 5620 5617 5613 5609 5606 5601 5596 5591 5586 5580 5574 5568 5562 5555 5547 5539 5532 5523 5513 5504 5495 5485 5476 5466 5457 5448 5440
5611 5613 5615 5616 5616 5617 5617 5616 5616 5614 5612 5610 5607 5604 5600 5597 5592 5587 5583 5578 5572 5566 5559 5553 5546 5539 5532 5524 5516 5507 5497 5488 5479 5469 5459 5450 5441 5433
5599 5602 5603 5604 5605 5606 5606 5606 5605 5604 5602 5600 5598 5595 5591 5588 5583 5579 5574 5569 5563 5557 5551 5544 5538 5531 5523 5516 5508 5500 5491 5481 5472 5462 5453 5444 5435 5427
5587 5590 5591 5592 5594 5595 5595 5595 5595 5594 5593 5591 5588 5585 5582 5578 5574 5570 5565 5560 5555 5549 5543 5536 5529 5522 5515 5508 5500 5491 5483 5474 5465 5455 5446 5437 5429 5421
5575 5577 5580 5582 5583 5584 5585 5584 5584 5584 5582 5581 5578 5575 5573 5569 5565 5561 5557 5552 5547 5541 5534 5528 5521 5514 5507 5500 5492 5484 5475 5466 5458 5449 5440 5431 5423 5415
5562 5566 5568 5571 5572 5573 5574 5574 5574 5573 5573 5571 5568 5566 5563 5560 5556 5552 5548 5543 5538 5532 5526 5520 5514 5507 5499 5492 5485 5477 5468 5459 5450 5442 5433 5425 5417 5409
5550 5554 5557 5560 5561 5562 5563 5564 5564 5564 5563 5561 5559 5557 5554 5551 5548 5544 5539 5535 5529 5524 5518 5512 5506 5499 5492 5485 5477 5470 5461 5453 5444 5435 5426 5418 5410 5403
5540 5543 5547 5549 5551 5552 5553 5554 5554 5554 5553 5551 5550 5548 5545 5542 5539 5535 5530 5526 5521 5515 5510 5504 5498 5492 5485 5477 5469 5462 5454 5446 5437 5428 5420 5411 5403 5396
5529 5532 5536 5538 5540 5542 5543 5544 5544 5544 5543 5542 5541 5539 5536 5533 5530 5526 5522 5517 5512 5507 5502 5496 5490 5483 5476 5469 5461 5453 5445 5437 5429 5421 5413 5405 5398 5391
5518 5522 5525 5528 5530 5532 5533 5534 5535 5534 5534 5533 5532 5530 5527 5524 5521 5517 5513 5508 5504 5499 5493 5488 5481 5475 5468 5461 5453 5445 5437 5428 5420 5412 5405 5398 5392 5385
5508 5512 5515 5517 5520 5522 5523 5524 5525 5525 5525 5524 5523 5521 5518 5515 5512 5508 5504 5500 5495 5490 5485 5479 5473 5466 5460 5453 5445 5437 5429 5420 5412 5404 5397 5390 5384 5379